Roanoke, VA

4:30 PM EDT on October 19, 2019 (GMT -0400)
Roanoke Regional-Woodrum

Weather History for KROA - August, 2019

Change the Weather History Date:

Saturday, August 31, 2019

  Actual Average Record
Temperature  
Mean Temperature 76 °F 73 °F  
Max Temperature 90 °F 84 °F 104 °F (1932)
Min Temperature 62 °F 63 °F 45 °F (1976)
Degree Days  
Heating Degree Days 0 0  
Month to date heating degree days 0 0  
Since 1 June heating degree days 0 12  
Since 1 July heating degree days 0 1  
Cooling Degree Days 11 8  
Month to date cooling degree days 380 324  
Year to date cooling degree days 1363 1047  
Since 1 June cooling degree days 1084 931  
Growing Degree Days 26 (Base 50)    
Moisture  
Dew Point 63 °F    
Average Humidity 68    
Maximum Humidity 93    
Minimum Humidity 43    
Precipitation  
Precipitation 0.00 in 0.12 in 2.58 in (1952)
Month to date precipitation 3.13 3.56  
Year to date precipitation 30.70 28.13  
Snow  
Snow 0.00 in - - ()
Month to date snowfall 0.0  
Since 1 June snowfall T  
Since 1 July snowfall T  
Snow Depth 0.00 in    
Sea Level Pressure  
Sea Level Pressure 30.18 in    
Wind  
Wind Speed 5 mph (ENE)    
Max Wind Speed 17 mph    
Max Gust Speed 20 mph    
Visibility 10 miles    
Events      
T = Trace of Precipitation, MM = Missing Value Source: NWS Daily Summary

Daily Weather History Graph

Daily Weather History Graph

Search for Another Location

Airport or City:

Astronomy

Aug. 31, 2019 Rise Set
Actual Time 6:49 AM EDT 7:50 PM EDT
Civil Twilight 6:22 AM EDT 8:17 PM EDT
Nautical Twilight 5:50 AM EDT 8:48 PM EDT
Astronomical Twilight 5:17 AM EDT 9:21 PM EDT
Moon 8:02 AM EDT (8/31) 9:04 PM EDT (8/31)
Length of Visible Light 13h 54m
Length of Day
13h 01m
New Moon, 2% of the Moon is Illuminated
Aug 31
New Moon
Sep 5
First Quarter
Sep 14
Full
Sep 21
Last Quarter
Sep 28
New

Hourly Weather History & Observations

Time (EDT) Temp. Heat Index Dew Point Humidity Pressure Visibility Wind Dir Wind Speed Gust Speed Precip Events Conditions
12:54 AM 70.0 °F - 61.0 °F 73% 30.17 in 10.0 mi West 3.5 mph - N/A   Clear
1:54 AM 68.0 °F - 61.0 °F 78% 30.16 in 10.0 mi NW 3.5 mph - N/A   Clear
2:54 AM 68.0 °F - 61.0 °F 78% 30.15 in 10.0 mi Calm Calm - N/A   Clear
3:54 AM 66.9 °F - 61.0 °F 81% 30.15 in 10.0 mi Calm Calm - N/A   Clear
4:54 AM 66.0 °F - 61.0 °F 84% 30.17 in 10.0 mi Calm Calm - N/A   Clear
5:54 AM 66.0 °F - 61.0 °F 84% 30.17 in 10.0 mi Calm Calm - N/A   Clear
6:54 AM 63.0 °F - 60.1 °F 90% 30.20 in 10.0 mi Calm Calm - N/A   Partly Cloudy
7:54 AM 66.0 °F - 61.0 °F 84% 30.21 in 10.0 mi NW 6.9 mph - N/A   Clear
8:54 AM 71.1 °F - 62.1 °F 73% 30.22 in 10.0 mi Calm Calm - N/A   Clear
9:54 AM 75.9 °F - 64.0 °F 67% 30.22 in 10.0 mi Calm Calm - N/A   Partly Cloudy
10:54 AM 80.1 °F 81.7 °F 64.0 °F 58% 30.21 in 10.0 mi Calm Calm - N/A   Scattered Clouds
11:54 AM 84.0 °F 85.4 °F 64.0 °F 51% 30.21 in 10.0 mi WNW 3.5 mph - N/A   Partly Cloudy
12:54 PM 86.0 °F 87.3 °F 64.0 °F 48% 30.19 in 10.0 mi Variable 4.6 mph - N/A   Scattered Clouds
1:54 PM 89.1 °F 91.0 °F 64.9 °F 45% 30.18 in 10.0 mi North 4.6 mph - N/A   Scattered Clouds
2:54 PM 86.0 °F 86.8 °F 63.0 °F 46% 30.18 in 10.0 mi East 8.1 mph 17.3 mph N/A   Scattered Clouds
3:54 PM 89.1 °F 90.3 °F 64.0 °F 43% 30.16 in 10.0 mi SE 8.1 mph - N/A   Partly Cloudy
4:54 PM 88.0 °F 88.4 °F 62.1 °F 42% 30.15 in 10.0 mi SE 10.4 mph - N/A   Partly Cloudy
5:54 PM 87.1 °F 87.8 °F 63.0 °F 44% 30.14 in 10.0 mi SSE 5.8 mph - N/A   Partly Cloudy
6:54 PM 86.0 °F 86.3 °F 62.1 °F 44% 30.14 in 10.0 mi SSE 8.1 mph - N/A   Partly Cloudy
7:54 PM 84.9 °F 85.9 °F 63.0 °F 48% 30.14 in 10.0 mi East 6.9 mph - N/A   Mostly Cloudy
8:54 PM 82.9 °F 83.7 °F 62.1 °F 49% 30.17 in 10.0 mi East 6.9 mph - N/A   Scattered Clouds
9:54 PM 79.0 °F - 64.0 °F 60% 30.18 in 10.0 mi NE 8.1 mph - N/A   Mostly Cloudy
10:54 PM 77.0 °F - 64.9 °F 66% 30.20 in 10.0 mi NE 9.2 mph - N/A   Mostly Cloudy
11:54 PM 75.9 °F - 64.9 °F 69% 30.22 in 10.0 mi NNE 11.5 mph - N/A   Mostly Cloudy